SCP
0 0 0 0 0 0 0 0 0 0 0 0 0 0 0 0 0 0 0 0 0 0 0 0 0 0 0 0 0 0 0 0 0 0 0 0 0 0 0 0 0 0 0 0
0 0 0 0 0 0 -0 0 -0 -0 -0 0 0 0 0 0 0 0 0 0 0 0 0 0 0 0 -0 0 0 0 0 0 0 0 0 0 0 0 0 0 0 0 0 0
0 0 0 0 0 0 0 0 0 0 0 0 0 0 0 0 0 0 0 0 0 0 0 0 0 0 0 0 0 0 0 0 0 0 0 0 0 0 0 0 0 0 0 0
0 0 0 0 0 0 0 0 0 0 0 0 0 0 -0 -0 -0 0 0 0 0 0 0 0 0 0 0 0 0 0 0 0 0 0 0 0 0 0 0 0 0 0 0 0
0 0 0 0 0 0 0 -0 0 0 0 0 -0 -0 -0 -0 -0 0 0 0 0 0 0 0 -0 -0 -0 0 0 0 0 0 0 0 0 0 0 0 0 0 0 0 0 0
0 -0 -0 0 0 0 0 0 0 0 0 -0 -0 -0 -0 0 0 0 0 0 0 0 0 0 0 0 0 0 -0 0 0 0 0 0 0 0 0 0 0 0 0 0 0 0
0 -0 0 0 0 -0 -0 0 -0 -0 -0 -0 -0 0 -0 -0 -0 0 0 0 0 0 0 0 0 0 0 0 0 0 0 0 0 0 0 0 0 0 0 0 0 0 0 0
-0 -0 -0 0 -0 -0 0 -0 -0 -0 0 -0 -0 -0 -0 -0 -0 -0 -0 0 0 0 0 0 0 0 0 0 0 0 0 0 0 0 0 0 0 0 0 0 0 0 0 0
-0 -0 -0 -0 -0 0 0 -0 -0 -0 0 0 -0 0 -0 -0 -0 0 0 0 -0 0 0 0 0 0 0 0 0 0 0 0 0 0 0 0 0 0 0 0 0 0 0 0
-0 -0 -0 -0 0 0 -0 -0 -0 0 0 0 0 -0 -0 -0 0 0 0 0 0 0 0 0 0 0 0 0 0 0 0 0 0 0 0 0 0 0 0 0 0 0 0 0
0 -0 -0 0 0 0 0 0 0 0 0 -0 0 0 -0 0 0 0 0 0 0 0 0 0 0 0 0 0 0 -0 -0 0 0 0 0 0 0 0 0 0 0 0 0 0
0 0 0 0 0 0 0 -0 0 -0 0 -0 -0 -0 0 0 0 0 0 0 0 0 -0 -0 0 0 0 0 -0 0 0 0 0 0 0 0 0 0 0 0 0 0 0 0
0 0 0 0 0 -0 -0 -0 -0 0 0 -0 -0 0 0 0 0 0 0 0 0 0 0 -0 -0 -0 0 0 0 0 0 0 0 0 0 0 0 0 0 0 0 -0 0 0
0 0 0 0 0 -0 -0 -0 -0 -0 0 0 0 0 0 0 0 0 0 0 0 0 0 0 0 0 -0 0 0 0 0 0 0 0 0 0 0 0 0 0 0 0 0 0
0 0 0 0 0 0 -0 -0 -0 -0 0 0 0 0 0 0 0 0 0 0 0 0 0 0 0 0 0 0 -0 0 -0 0 0 0 0 0 0 0 0 0 0 0 -0 -0
0 0 0 0 0 0 -0 -0 -0 -0 -0 0 0 0 0 0 0 0 0 0 0 0 0 0 0 0 0 -0 -0 -0 -0 -0 -0 -0 -0 -0 -0 -0 0 0 0 0 0 0
-0 0 0 0 0 -0 -0 -0 -0 -0 -0 -0 0 0 0 0 0 0 0 0 0 0 0 0 0 0 0 0 0 0 0 0 0 -0 -0 -0 -0 0 0 0 0 0 0 0
0 -0 -0 0 0 0 -0 -0 -0 0 -0 0 0 0 -0 0 0 0 0 0 0 0 0 0 0 0 0 0 0 0 0 0 0 0 0 0 0 0 0 0 0 0 0 0
0 -0 0 -0 0 -0 0 0 -0 0 -0 -0 -0 0 0 0 0 0 0 0 0 0 0 0 0 0 0 0 0 0 0 0 0 0 0 0 0 0 0 0 0 0 -0 -0
-0 0 0 -0 -0 -0 0 -0 -0 -0 -0 -0 -0 -0 -0 -0 0 0 0 0 0 0 0 0 0 0 0 0 0 0 0 0 0 0 0 0 0 0 0 0 0 0 0 0
0 0 0 0 0 -0 -0 -0 0 -0 -0 -0 -0 -0 -0 -0 -0 -0 0 0 -0 -0 -0 -0 0 0 0 0 0 0 0 0 0 0 0 0 0 0 0 0 0 0 0 0
-0 -0 0 0 0 0 0 -0 0 0 -0 -0 -0 -0 -0 -0 -0 0 0 0 0 -0 0 0 0 -0 0 0 0 0 0 0 0 0 0 0 0 0 0 0 0 0 0 0
-0 -0 -0 -0 0 0 0 0 0 0 0 -0 -0 -0 -0 -0 -0 -0 -0 -0 -0 -0 -0 0 -0 -0 -0 0 0 0 0 0 0 0 0 0 0 0 0 0 0 0 0 0
-0 -0 -0 -0 0 -0 -0 -0 0 0 0 0 0 -0 -0 -0 -0 -0 -0 -0 -0 -0 -0 -0 -0 -0 -0 -0 -0 0 0 0 0 0 0 0 0 0 0 0 0 0 0 0
-0 -0 -0 -0 0 0 -0 -0 0 -0 -0 -0 -0 -0 -0 0 -0 -0 -0 -0 -0 -0 -0 -0 -0 -0 -0 -0 -0 -0 0 0 0 0 0 0 0 0 0 0 0 0 0 0
-0 -0 -0 -0 -0 -0 -0 -0 -0 0 0 -0 0 -0 -0 -0 0 -0 -0 -0 -0 -0 -0 -0 -0 -0 -0 -0 -0 -0 -0 0 0 0 0 0 0 0 0 0 0 0 0 0
-0 -0 -0 -0 -0 -0 -0 -0 -0 -0 -0 -0 0 0 -0 -0 -0 -0 -0 -0 0 -0 -0 -0 -0 -0 -0 -0 -0 -0 -0 -0 -0 0 0 0 0 0 0 0 0 0 0 0
Wind_Speed_500mb
13 19 18 23 26 24 18 29 20 33 19 5 11 12 14 30 42 46 50 40 39 46 60 73 66 44 52 52 49 55 62 64 62 55 52 53 51 50 49 47 43 40 42 47
9 22 19 17 27 25 22 25 25 26 22 2 14 25 26 36 44 48 57 60 53 48 43 45 51 41 39 44 31 40 62 72 69 67 61 59 57 55 56 55 51 53 56 52
8 9 15 9 5 6 7 15 10 7 6 8 12 18 32 43 49 58 68 61 53 54 38 37 35 32 39 38 37 41 43 46 51 56 59 59 58 62 63 63 68 68 65 66
7 10 5 7 3 3 16 14 7 11 12 14 25 45 50 56 63 70 59 54 50 57 68 71 72 71 70 71 68 68 67 66 66 65 67 68 70 74 74 71 73 79 85 83
3 4 14 2 7 8 10 37 4 12 21 30 42 55 47 44 44 44 59 72 87 84 91 102 106 103 86 91 94 88 96 94 87 82 80 77 80 82 82 79 78 82 85 94
3 4 8 4 18 24 21 15 16 29 27 33 48 30 35 51 63 78 88 89 77 83 90 92 101 106 112 123 107 100 105 94 84 88 87 86 84 80 80 78 83 83 87 87
5 7 11 10 20 33 3 11 44 44 52 59 36 44 92 86 84 81 84 81 93 101 101 100 96 97 105 109 114 119 103 96 92 88 85 84 76 74 73 71 73 75 76 73
3 5 10 19 7 6 13 42 57 60 65 66 72 89 91 84 85 94 97 99 102 105 105 105 102 99 101 105 97 92 83 84 88 84 84 78 82 84 75 75 75 75 75 71
10 9 3 12 12 31 38 50 58 65 82 86 77 81 102 106 102 103 106 106 96 93 100 97 101 107 106 103 95 93 92 98 94 90 89 90 84 78 76 77 78 82 74 78
8 3 12 52 34 45 60 60 75 80 89 61 88 94 107 101 99 100 99 96 92 93 100 100 96 97 98 90 85 82 83 74 77 76 78 78 77 80 81 82 73 67 71 69
10 13 41 16 46 60 68 78 75 85 70 87 89 102 105 106 105 101 102 99 90 89 96 96 84 89 87 92 87 82 82 80 79 77 80 82 83 83 80 77 75 68 62 57
7 25 19 43 63 70 76 81 80 94 71 97 99 102 107 104 101 96 95 94 89 83 79 86 84 83 79 68 77 79 73 68 64 62 64 65 67 66 65 63 60 63 64 60
16 39 43 58 61 63 75 77 85 88 87 102 103 96 95 93 87 83 76 72 75 55 58 47 37 67 59 52 71 66 75 67 64 69 66 63 65 65 60 55 55 56 54 56
16 36 38 40 60 74 70 82 83 90 90 85 92 102 81 79 80 71 63 57 57 52 53 43 30 24 32 42 58 59 66 61 66 62 64 59 58 55 56 51 54 56 55 55
35 41 46 56 58 65 73 80 86 88 102 95 101 97 100 97 82 68 56 44 47 50 46 37 29 23 29 39 51 52 55 66 63 59 58 59 56 55 52 52 50 47 44 49
44 45 47 56 61 68 73 77 79 91 105 99 107 100 93 85 73 66 60 40 45 47 44 37 29 21 25 34 44 48 45 52 57 55 47 49 54 54 50 49 44 39 33 35
41 48 60 61 64 67 67 70 76 83 96 104 109 99 93 87 82 86 76 52 41 38 29 27 23 23 35 41 38 35 44 45 46 48 50 50 50 49 48 48 46 43 36 22
32 39 42 48 59 62 64 67 76 81 90 97 103 99 100 101 94 89 79 81 50 37 27 20 17 13 10 16 20 25 29 35 43 45 44 46 43 46 48 50 47 49 34 27
33 38 39 43 55 50 56 66 73 79 84 95 104 99 92 97 101 95 91 95 86 75 56 28 22 21 20 18 9 9 14 19 34 40 39 43 51 47 60 56 56 42 40 55
37 36 37 44 47 48 57 63 68 78 82 95 104 109 110 113 102 99 96 94 82 71 67 58 43 33 18 20 28 40 33 38 49 49 41 48 50 55 46 42 52 57 63 56
38 40 45 47 45 45 48 54 63 74 83 86 95 97 93 93 104 100 98 95 82 68 54 44 40 39 34 26 30 40 36 26 29 38 49 58 65 70 79 77 70 65 72 69
37 49 55 57 48 42 48 50 57 66 76 81 90 99 109 111 110 98 85 83 81 59 50 43 38 36 32 30 31 32 32 28 26 28 34 48 56 59 62 61 60 55 53 55
33 45 51 62 48 47 47 47 54 63 69 76 80 87 92 92 97 104 106 91 77 66 53 44 39 35 34 34 33 30 26 33 37 40 49 48 48 50 51 51 50 49 52 56
34 42 48 58 58 47 56 58 55 59 63 68 72 76 84 96 96 97 88 85 71 66 62 46 35 30 30 33 32 28 29 26 27 33 36 39 39 38 44 46 47 45 45 46
34 38 44 52 65 63 46 53 55 58 62 66 69 70 73 79 87 91 95 87 82 69 62 50 38 32 29 28 27 26 22 19 18 27 31 33 38 39 41 43 44 44 43 42
33 40 41 42 53 63 47 48 55 57 57 61 62 66 70 72 77 84 89 92 86 75 66 58 50 36 29 26 22 19 17 15 13 21 24 26 26 29 33 35 36 41 40 41
28 36 41 45 51 57 61 48 45 51 54 55 55 59 64 70 73 76 81 88 89 84 71 65 52 43 32 24 19 17 15 17 19 22 25 29 32 34 35 44 40 39 37 39
Wind_Direction_500mb
239 248 251 263 272 272 231 241 233 269 263 283 343 328 328 338 343 340 336 330 308 289 268 270 266 286 284 281 253 239 230 231 227 231 234 234 238 242 248 251 255 264 275 272
270 259 268 274 286 282 300 265 251 270 290 18 327 328 329 326 326 319 316 310 304 301 294 280 265 260 272 266 254 243 239 235 233 235 236 240 245 249 249 248 258 268 276 277
264 314 307 290 0 49 314 285 279 277 271 336 309 318 315 312 306 299 298 296 293 296 277 277 268 262 259 259 253 256 246 234 229 232 236 239 243 248 253 259 264 270 274 276
272 346 291 249 216 269 337 286 274 286 309 323 313 302 298 294 285 285 286 286 288 283 282 282 285 279 279 276 272 269 266 257 250 248 246 244 246 249 253 258 263 268 272 276
250 199 282 214 16 334 359 303 62 328 313 302 303 304 290 297 287 280 283 279 285 281 279 279 278 278 279 277 276 275 269 263 260 258 256 254 255 257 263 270 274 275 277 278
212 236 259 50 358 330 310 266 9 330 315 314 313 299 294 303 290 283 284 276 265 275 273 266 268 273 271 269 270 266 263 260 257 257 253 254 259 261 266 269 271 274 275 276
224 256 279 33 353 314 274 299 323 319 307 299 286 282 292 289 291 286 289 275 278 279 270 262 263 261 258 260 261 260 259 258 258 254 252 254 257 261 263 257 258 263 268 273
324 273 286 18 340 358 279 308 307 304 296 294 293 294 295 296 297 294 285 279 276 272 267 264 259 252 251 248 248 247 248 246 246 245 247 248 257 260 259 253 256 259 262 260
190 232 269 325 292 307 306 304 306 307 306 297 300 312 306 299 296 291 288 286 282 272 267 260 255 253 252 246 243 243 244 240 243 243 244 245 246 251 250 251 253 259 255 253
15 295 319 318 313 320 316 308 310 310 309 313 309 305 303 301 301 300 295 290 286 278 273 266 259 251 246 241 236 232 232 228 227 228 230 234 240 246 247 250 249 246 252 248
267 301 322 273 313 315 315 315 313 318 312 311 307 307 309 306 305 303 302 301 295 284 277 279 274 257 248 236 232 229 227 228 227 229 234 236 239 241 242 244 242 239 240 246
273 314 298 293 310 320 314 314 322 320 318 320 317 311 311 308 312 310 313 314 307 303 291 282 273 259 245 235 221 217 216 210 213 218 222 228 231 231 233 239 241 240 246 241
276 299 303 305 312 316 315 323 327 319 316 317 320 318 317 317 322 322 326 331 337 335 339 336 266 235 230 221 208 208 210 217 215 213 220 222 226 227 229 224 230 234 230 229
322 325 312 318 312 324 324 330 327 324 319 322 328 332 332 332 341 345 344 354 359 360 12 30 68 163 190 193 190 201 208 197 198 213 217 221 221 222 225 229 227 229 229 227
332 327 311 315 322 329 335 334 330 333 332 335 340 342 344 346 353 356 3 9 24 21 26 38 67 107 147 166 180 185 195 201 212 218 220 224 224 223 227 229 235 234 229 229
333 335 333 336 333 334 333 336 336 336 337 340 342 347 347 353 359 6 18 26 35 31 36 44 66 98 145 163 171 179 188 199 206 212 218 220 221 222 217 215 218 231 233 234
340 338 341 337 334 333 336 344 341 340 341 342 345 349 354 360 7 24 29 30 46 48 45 57 68 116 141 150 162 185 194 201 205 204 205 216 218 218 222 223 218 216 206 200
348 336 337 337 335 337 346 350 355 352 347 345 348 355 2 8 8 14 24 32 54 68 75 82 80 99 138 165 179 188 199 208 208 212 207 212 213 211 210 215 207 187 184 179
357 350 349 339 350 351 358 1 2 4 354 355 358 1 5 12 17 21 30 37 46 45 49 76 81 83 87 63 24 276 234 160 156 170 165 178 196 203 186 185 182 186 188 175
358 358 353 346 358 2 360 5 7 10 7 10 8 10 11 16 22 27 31 33 34 35 49 69 79 81 76 81 102 119 117 111 124 137 141 142 144 144 161 172 165 165 164 165
11 13 4 356 0 9 10 10 11 13 14 18 13 9 10 14 25 27 29 27 27 48 55 57 60 79 95 91 109 125 117 118 124 127 136 138 138 137 139 148 154 149 151 146
25 18 16 12 10 13 18 17 14 17 18 19 18 19 22 21 20 25 27 24 28 38 55 64 60 60 80 94 110 117 126 124 121 132 134 143 143 144 143 143 146 147 147 149
22 22 20 17 20 20 21 19 19 20 20 22 19 22 20 24 22 20 20 21 28 35 49 71 72 70 76 80 78 79 109 129 139 148 151 148 147 147 147 144 146 151 153 153
22 19 22 23 26 20 22 19 18 21 21 23 23 23 25 21 28 28 27 23 28 35 45 64 77 72 75 77 79 81 86 98 133 146 149 151 154 154 152 152 155 157 157 161
23 19 19 20 21 19 19 21 18 16 16 20 22 24 25 30 27 26 27 26 25 30 36 49 68 81 77 77 76 80 83 82 123 146 152 158 161 160 159 156 155 157 161 163
29 27 26 25 20 20 20 24 20 17 15 15 18 21 24 24 25 27 28 30 28 27 31 34 42 58 69 79 87 87 93 102 114 160 157 154 157 165 167 167 166 163 162 158
33 29 29 29 24 21 24 24 18 16 19 17 13 16 20 22 25 26 27 27 30 28 28 29 32 37 50 60 72 85 106 129 143 158 169 164 161 167 170 162 163 167 165 167
Wind_Speed_850mb
13 19 18 23 26 24 18 29 20 33 19 5 11 12 14 30 42 46 50 40 39 46 60 73 66 44 52 52 49 55 62 64 62 55 52 53 51 50 49 47 43 40 42 47
9 22 19 17 27 25 22 25 25 26 22 2 14 25 26 36 44 48 57 60 53 48 43 45 51 41 39 44 31 40 62 72 69 67 61 59 57 55 56 55 51 53 56 52
8 9 15 9 5 6 7 15 10 7 6 8 12 18 32 43 49 58 68 61 53 54 38 37 35 32 39 38 37 41 43 46 51 56 59 59 58 62 63 63 68 68 65 66
7 10 5 7 3 3 16 14 7 11 12 14 25 45 50 56 63 70 59 54 50 57 68 71 72 71 70 71 68 68 67 66 66 65 67 68 70 74 74 71 73 79 85 83
3 4 14 2 7 8 10 37 4 12 21 30 42 55 47 44 44 44 59 72 87 84 91 102 106 103 86 91 94 88 96 94 87 82 80 77 80 82 82 79 78 82 85 94
3 4 8 4 18 24 21 15 16 29 27 33 48 30 35 51 63 78 88 89 77 83 90 92 101 106 112 123 107 100 105 94 84 88 87 86 84 80 80 78 83 83 87 87
5 7 11 10 20 33 3 11 44 44 52 59 36 44 92 86 84 81 84 81 93 101 101 100 96 97 105 109 114 119 103 96 92 88 85 84 76 74 73 71 73 75 76 73
3 5 10 19 7 6 13 42 57 60 65 66 72 89 91 84 85 94 97 99 102 105 105 105 102 99 101 105 97 92 83 84 88 84 84 78 82 84 75 75 75 75 75 71
10 9 3 12 12 31 38 50 58 65 82 86 77 81 102 106 102 103 106 106 96 93 100 97 101 107 106 103 95 93 92 98 94 90 89 90 84 78 76 77 78 82 74 78
8 3 12 52 34 45 60 60 75 80 89 61 88 94 107 101 99 100 99 96 92 93 100 100 96 97 98 90 85 82 83 74 77 76 78 78 77 80 81 82 73 67 71 69
10 13 41 16 46 60 68 78 75 85 70 87 89 102 105 106 105 101 102 99 90 89 96 96 84 89 87 92 87 82 82 80 79 77 80 82 83 83 80 77 75 68 62 57
7 25 19 43 63 70 76 81 80 94 71 97 99 102 107 104 101 96 95 94 89 83 79 86 84 83 79 68 77 79 73 68 64 62 64 65 67 66 65 63 60 63 64 60
16 39 43 58 61 63 75 77 85 88 87 102 103 96 95 93 87 83 76 72 75 55 58 47 37 67 59 52 71 66 75 67 64 69 66 63 65 65 60 55 55 56 54 56
16 36 38 40 60 74 70 82 83 90 90 85 92 102 81 79 80 71 63 57 57 52 53 43 30 24 32 42 58 59 66 61 66 62 64 59 58 55 56 51 54 56 55 55
35 41 46 56 58 65 73 80 86 88 102 95 101 97 100 97 82 68 56 44 47 50 46 37 29 23 29 39 51 52 55 66 63 59 58 59 56 55 52 52 50 47 44 49
44 45 47 56 61 68 73 77 79 91 105 99 107 100 93 85 73 66 60 40 45 47 44 37 29 21 25 34 44 48 45 52 57 55 47 49 54 54 50 49 44 39 33 35
41 48 60 61 64 67 67 70 76 83 96 104 109 99 93 87 82 86 76 52 41 38 29 27 23 23 35 41 38 35 44 45 46 48 50 50 50 49 48 48 46 43 36 22
32 39 42 48 59 62 64 67 76 81 90 97 103 99 100 101 94 89 79 81 50 37 27 20 17 13 10 16 20 25 29 35 43 45 44 46 43 46 48 50 47 49 34 27
33 38 39 43 55 50 56 66 73 79 84 95 104 99 92 97 101 95 91 95 86 75 56 28 22 21 20 18 9 9 14 19 34 40 39 43 51 47 60 56 56 42 40 55
37 36 37 44 47 48 57 63 68 78 82 95 104 109 110 113 102 99 96 94 82 71 67 58 43 33 18 20 28 40 33 38 49 49 41 48 50 55 46 42 52 57 63 56
38 40 45 47 45 45 48 54 63 74 83 86 95 97 93 93 104 100 98 95 82 68 54 44 40 39 34 26 30 40 36 26 29 38 49 58 65 70 79 77 70 65 72 69
37 49 55 57 48 42 48 50 57 66 76 81 90 99 109 111 110 98 85 83 81 59 50 43 38 36 32 30 31 32 32 28 26 28 34 48 56 59 62 61 60 55 53 55
33 45 51 62 48 47 47 47 54 63 69 76 80 87 92 92 97 104 106 91 77 66 53 44 39 35 34 34 33 30 26 33 37 40 49 48 48 50 51 51 50 49 52 56
34 42 48 58 58 47 56 58 55 59 63 68 72 76 84 96 96 97 88 85 71 66 62 46 35 30 30 33 32 28 29 26 27 33 36 39 39 38 44 46 47 45 45 46
34 38 44 52 65 63 46 53 55 58 62 66 69 70 73 79 87 91 95 87 82 69 62 50 38 32 29 28 27 26 22 19 18 27 31 33 38 39 41 43 44 44 43 42
33 40 41 42 53 63 47 48 55 57 57 61 62 66 70 72 77 84 89 92 86 75 66 58 50 36 29 26 22 19 17 15 13 21 24 26 26 29 33 35 36 41 40 41
28 36 41 45 51 57 61 48 45 51 54 55 55 59 64 70 73 76 81 88 89 84 71 65 52 43 32 24 19 17 15 17 19 22 25 29 32 34 35 44 40 39 37 39
Wind_Direction_850mb
239 248 251 263 272 272 231 241 233 269 263 283 343 328 328 338 343 340 336 330 308 289 268 270 266 286 284 281 253 239 230 231 227 231 234 234 238 242 248 251 255 264 275 272
270 259 268 274 286 282 300 265 251 270 290 18 327 328 329 326 326 319 316 310 304 301 294 280 265 260 272 266 254 243 239 235 233 235 236 240 245 249 249 248 258 268 276 277
264 314 307 290 0 49 314 285 279 277 271 336 309 318 315 312 306 299 298 296 293 296 277 277 268 262 259 259 253 256 246 234 229 232 236 239 243 248 253 259 264 270 274 276
272 346 291 249 216 269 337 286 274 286 309 323 313 302 298 294 285 285 286 286 288 283 282 282 285 279 279 276 272 269 266 257 250 248 246 244 246 249 253 258 263 268 272 276
250 199 282 214 16 334 359 303 62 328 313 302 303 304 290 297 287 280 283 279 285 281 279 279 278 278 279 277 276 275 269 263 260 258 256 254 255 257 263 270 274 275 277 278
212 236 259 50 358 330 310 266 9 330 315 314 313 299 294 303 290 283 284 276 265 275 273 266 268 273 271 269 270 266 263 260 257 257 253 254 259 261 266 269 271 274 275 276
224 256 279 33 353 314 274 299 323 319 307 299 286 282 292 289 291 286 289 275 278 279 270 262 263 261 258 260 261 260 259 258 258 254 252 254 257 261 263 257 258 263 268 273
324 273 286 18 340 358 279 308 307 304 296 294 293 294 295 296 297 294 285 279 276 272 267 264 259 252 251 248 248 247 248 246 246 245 247 248 257 260 259 253 256 259 262 260
190 232 269 325 292 307 306 304 306 307 306 297 300 312 306 299 296 291 288 286 282 272 267 260 255 253 252 246 243 243 244 240 243 243 244 245 246 251 250 251 253 259 255 253
15 295 319 318 313 320 316 308 310 310 309 313 309 305 303 301 301 300 295 290 286 278 273 266 259 251 246 241 236 232 232 228 227 228 230 234 240 246 247 250 249 246 252 248
267 301 322 273 313 315 315 315 313 318 312 311 307 307 309 306 305 303 302 301 295 284 277 279 274 257 248 236 232 229 227 228 227 229 234 236 239 241 242 244 242 239 240 246
273 314 298 293 310 320 314 314 322 320 318 320 317 311 311 308 312 310 313 314 307 303 291 282 273 259 245 235 221 217 216 210 213 218 222 228 231 231 233 239 241 240 246 241
276 299 303 305 312 316 315 323 327 319 316 317 320 318 317 317 322 322 326 331 337 335 339 336 266 235 230 221 208 208 210 217 215 213 220 222 226 227 229 224 230 234 230 229
322 325 312 318 312 324 324 330 327 324 319 322 328 332 332 332 341 345 344 354 359 360 12 30 68 163 190 193 190 201 208 197 198 213 217 221 221 222 225 229 227 229 229 227
332 327 311 315 322 329 335 334 330 333 332 335 340 342 344 346 353 356 3 9 24 21 26 38 67 107 147 166 180 185 195 201 212 218 220 224 224 223 227 229 235 234 229 229
333 335 333 336 333 334 333 336 336 336 337 340 342 347 347 353 359 6 18 26 35 31 36 44 66 98 145 163 171 179 188 199 206 212 218 220 221 222 217 215 218 231 233 234
340 338 341 337 334 333 336 344 341 340 341 342 345 349 354 360 7 24 29 30 46 48 45 57 68 116 141 150 162 185 194 201 205 204 205 216 218 218 222 223 218 216 206 200
348 336 337 337 335 337 346 350 355 352 347 345 348 355 2 8 8 14 24 32 54 68 75 82 80 99 138 165 179 188 199 208 208 212 207 212 213 211 210 215 207 187 184 179
357 350 349 339 350 351 358 1 2 4 354 355 358 1 5 12 17 21 30 37 46 45 49 76 81 83 87 63 24 276 234 160 156 170 165 178 196 203 186 185 182 186 188 175
358 358 353 346 358 2 360 5 7 10 7 10 8 10 11 16 22 27 31 33 34 35 49 69 79 81 76 81 102 119 117 111 124 137 141 142 144 144 161 172 165 165 164 165
11 13 4 356 0 9 10 10 11 13 14 18 13 9 10 14 25 27 29 27 27 48 55 57 60 79 95 91 109 125 117 118 124 127 136 138 138 137 139 148 154 149 151 146
25 18 16 12 10 13 18 17 14 17 18 19 18 19 22 21 20 25 27 24 28 38 55 64 60 60 80 94 110 117 126 124 121 132 134 143 143 144 143 143 146 147 147 149
22 22 20 17 20 20 21 19 19 20 20 22 19 22 20 24 22 20 20 21 28 35 49 71 72 70 76 80 78 79 109 129 139 148 151 148 147 147 147 144 146 151 153 153
22 19 22 23 26 20 22 19 18 21 21 23 23 23 25 21 28 28 27 23 28 35 45 64 77 72 75 77 79 81 86 98 133 146 149 151 154 154 152 152 155 157 157 161
23 19 19 20 21 19 19 21 18 16 16 20 22 24 25 30 27 26 27 26 25 30 36 49 68 81 77 77 76 80 83 82 123 146 152 158 161 160 159 156 155 157 161 163
29 27 26 25 20 20 20 24 20 17 15 15 18 21 24 24 25 27 28 30 28 27 31 34 42 58 69 79 87 87 93 102 114 160 157 154 157 165 167 167 166 163 162 158
33 29 29 29 24 21 24 24 18 16 19 17 13 16 20 22 25 26 27 27 30 28 28 29 32 37 50 60 72 85 106 129 143 158 169 164 161 167 170 162 163 167 165 167